Location: Scenic
(43.7797°N, 102.5549°W)
Time: 02:30:08
(UTC-07:00)

Tiangong 1 - Visible Passes

Search period start: 25 February 2018 00:00
Search period end: 07 March 2018 00:00
Orbit: 245 x 266 km, 42.8° (Epoch: 25 February)

Date Brightness Start Highest point End Pass type
(mag) Time Alt. Az. Time Alt. Az. Time Alt. Az.
02 Mar 2.7 18:17:52 10° S 18:18:57 13° SSE 18:20:04 10° ESE visible
03 Mar 3.8 19:41:10 10° WSW 19:41:21 12° WSW 19:41:21 12° WSW visible
04 Mar 3.1 19:31:52 10° WSW 19:32:39 19° WSW 19:32:39 19° WSW visible
05 Mar 2.1 19:22:16 10° W 19:23:36 30° WSW 19:23:36 30° WSW visible
06 Mar 0.9 19:12:23 10° W 19:14:14 51° WSW 19:14:14 51° WSW visible
